Weather History for Auburn, IN

Change the Weather History Date:

Saturday, January 12, 2013

  Actual Average (KFWA) Record (KFWA)
Temperature  
Mean Temperature 54 °F 25 °F  
Max Temperature 59 °F 32 °F 64 °F (2005)
Min Temperature 48 °F 17 °F -24 °F (1918)
Degree Days  
Heating Degree Days 12 40  
Month to date heating degree days 479  
Since 1 July heating degree days 2807  
Cooling Degree Days 0 0  
Month to date cooling degree days 0  
Year to date cooling degree days 0  
Growing Degree Days 4 (Base 50)    
Moisture  
Dew Point 47 °F    
Average Humidity 81    
Maximum Humidity 94    
Minimum Humidity 67    
Precipitation  
Precipitation 0.28 in 0.07 in 1.26 in (1908)
Month to date precipitation 0.95  
Year to date precipitation 0.95  
Snow  
Snow 0.00 in 0.30 in 4.90 in (1964)
Month to date snowfall 3.8  
Since 1 July snowfall 14.4  
Snow Depth -    
Sea Level Pressure  
Sea Level Pressure 29.90 in    
Wind  
Wind Speed 7 mph (SSW)    
Max Wind Speed 12 mph    
Max Gust Speed 18 mph    
Visibility 9 miles    
Events Rain    
T = Trace of Precipitation, MM = Missing Value Source: NWS Daily Summary

Daily Weather History Graph

Daily Weather History Graph

Search for Another Location

Airport:

Trip Planner

Search our weather history database for the weather conditions in past years. The results will help you decide how hot, cold, wet, or windy it might be!

Date:

Astronomy

Jan. 12, 2013 Rise Set
Actual Time 8:04 AM EST 5:32 PM EST
Civil Twilight 7:34 AM EST 6:03 PM EST
Nautical Twilight 7:00 AM EST 6:37 PM EST
Astronomical Twilight 6:26 AM EST 7:10 PM EST
Moon 8:22 AM EST (1/12) 7:02 PM EST (1/12)
Length of Visible Light 10h 29m
Length of Day
9h 28m
New Moon, 1% of the Moon is Illuminated
Jan 12
New Moon
Jan 18
First Quarter
Jan 26
Full
Feb 3
Last Quarter
Feb 10
New

Hourly Weather History & Observations

Time (EST) Temp. Dew Point Humidity Pressure Visibility Wind Dir Wind Speed Gust Speed Precip Events Conditions
12:15 AM 50.0 °F 44.6 °F 82% 29.85 in 10.0 mi SSW 6.9 mph - N/A   Clear
12:35 AM 50.0 °F 44.6 °F 82% 29.85 in 10.0 mi South 6.9 mph - N/A   Clear
12:55 AM 50.0 °F 44.6 °F 82% 29.85 in 10.0 mi SSW 8.1 mph - N/A   Clear
1:15 AM 50.0 °F 44.6 °F 82% 29.84 in 10.0 mi SSW 8.1 mph - N/A   Clear
1:35 AM 51.8 °F 44.6 °F 76% 29.85 in 10.0 mi SSW 8.1 mph - N/A   Clear
1:55 AM 51.8 °F 44.6 °F 76% 29.85 in 10.0 mi SSW 6.9 mph - N/A   Clear
2:35 AM 51.8 °F 44.6 °F 76% 29.86 in 10.0 mi SW 9.2 mph - N/A   Clear
2:55 AM 51.8 °F 44.6 °F 76% 29.88 in 10.0 mi SSW 8.1 mph - N/A   Clear
3:15 AM 51.8 °F 44.6 °F 76% 29.88 in 10.0 mi SSW 9.2 mph 18.4 mph N/A   Clear
3:35 AM 51.8 °F 44.6 °F 76% 29.87 in 10.0 mi SSW 6.9 mph - N/A   Clear
3:55 AM 50.0 °F 42.8 °F 76% 29.87 in 10.0 mi SSW 6.9 mph - N/A   Clear
4:15 AM 50.0 °F 42.8 °F 76% 29.87 in 10.0 mi SSW 5.8 mph - N/A   Clear
4:35 AM 50.0 °F 42.8 °F 76% 29.86 in 10.0 mi SSW 6.9 mph - N/A   Clear
4:55 AM 48.2 °F 42.8 °F 82% 29.86 in 10.0 mi SSW 8.1 mph - N/A   Clear
5:15 AM 48.2 °F 42.8 °F 82% 29.86 in 10.0 mi SSW 8.1 mph - N/A   Clear
5:35 AM 48.2 °F 42.8 °F 82% 29.86 in 10.0 mi SSW 8.1 mph - N/A   Clear
5:55 AM 48.2 °F 42.8 °F 82% 29.86 in 10.0 mi SSW 6.9 mph - N/A   Clear
6:15 AM 50.0 °F 44.6 °F 82% 29.87 in 10.0 mi SSW 6.9 mph - N/A   Clear
6:35 AM 50.0 °F 44.6 °F 82% 29.88 in 10.0 mi SSW 6.9 mph - N/A   Clear
6:55 AM 50.0 °F 44.6 °F 82% 29.88 in 10.0 mi SSW 8.1 mph - N/A   Clear
7:15 AM 50.0 °F 44.6 °F 82% 29.88 in 10.0 mi SSW 5.8 mph - N/A   Clear
7:35 AM 50.0 °F 44.6 °F 82% 29.90 in 10.0 mi SSW 6.9 mph - N/A   Clear
7:55 AM 50.0 °F 44.6 °F 82% 29.91 in 10.0 mi SW 8.1 mph - N/A   Clear
8:15 AM 50.0 °F 44.6 °F 82% 29.92 in 10.0 mi SW 8.1 mph - N/A   Clear
8:35 AM 50.0 °F 44.6 °F 82% 29.93 in 10.0 mi SSW 8.1 mph - N/A   Clear
8:55 AM 51.8 °F 44.6 °F 76% 29.93 in 10.0 mi SSW 6.9 mph - N/A   Clear
9:15 AM 51.8 °F 44.6 °F 76% 29.93 in 10.0 mi SW 8.1 mph - N/A   Clear
9:35 AM 51.8 °F 44.6 °F 76% 29.95 in 10.0 mi SW 8.1 mph - N/A   Clear
9:55 AM 51.8 °F 46.4 °F 82% 29.96 in 10.0 mi SW 8.1 mph - N/A   Clear
10:15 AM 53.6 °F 46.4 °F 77% 29.95 in 10.0 mi SSW 10.4 mph 16.1 mph N/A   Clear
10:35 AM 55.4 °F 46.4 °F 72% 29.95 in 10.0 mi SSW 9.2 mph - N/A   Clear
10:55 AM 55.4 °F 46.4 °F 72% 29.95 in 10.0 mi SW 10.4 mph - N/A   Clear
11:15 AM 55.4 °F 46.4 °F 72% 29.95 in 10.0 mi SW 9.2 mph - N/A   Clear
11:35 AM 55.4 °F 48.2 °F 77% 29.95 in 10.0 mi SW 8.1 mph 16.1 mph N/A   Clear
12:15 PM 57.2 °F 48.2 °F 72% 29.94 in 10.0 mi SW 9.2 mph - N/A   Clear
12:35 PM 57.2 °F 48.2 °F 72% 29.93 in 10.0 mi SW 9.2 mph 17.3 mph N/A   Clear
12:55 PM 59.0 °F 48.2 °F 67% 29.93 in 10.0 mi SW 9.2 mph - N/A   Clear
1:35 PM 59.0 °F 48.2 °F 67% 29.93 in 10.0 mi SW 9.2 mph - N/A   Clear
1:55 PM 59.0 °F 50.0 °F 72% 29.95 in 10.0 mi WSW 11.5 mph 16.1 mph N/A   Clear
2:15 PM 59.0 °F 50.0 °F 72% 29.95 in 10.0 mi SW 9.2 mph - N/A   Clear
2:35 PM 59.0 °F 50.0 °F 72% 29.94 in 10.0 mi SSW 8.1 mph - N/A   Clear
2:55 PM 59.0 °F 50.0 °F 72% 29.95 in 10.0 mi SW 5.8 mph - N/A   Clear
3:15 PM 59.0 °F 50.0 °F 72% 29.93 in 10.0 mi SSW 4.6 mph - N/A   Clear
3:35 PM 59.0 °F 50.0 °F 72% 29.94 in 10.0 mi SSW 8.1 mph - N/A   Clear
3:55 PM 59.0 °F 48.2 °F 67% 29.94 in 10.0 mi SSW 5.8 mph - N/A   Clear
4:15 PM 57.2 °F 50.0 °F 77% 29.95 in 10.0 mi SSW 3.5 mph - N/A   Clear
4:35 PM 57.2 °F 50.0 °F 77% 29.95 in 10.0 mi Calm Calm - N/A   Clear
4:55 PM 55.4 °F 48.2 °F 77% 29.96 in 10.0 mi Calm Calm - N/A   Clear
5:15 PM 55.4 °F 48.2 °F 77% 29.93 in 10.0 mi Calm Calm - N/A   Clear
5:35 PM 53.6 °F 50.0 °F 88% 29.93 in 10.0 mi Calm Calm - N/A   Clear
5:55 PM 53.6 °F 48.2 °F 82% 29.93 in 10.0 mi Calm Calm - N/A   Clear
6:15 PM 53.6 °F 50.0 °F 88% 29.93 in 10.0 mi Calm Calm - N/A   Clear
6:35 PM 51.8 °F 50.0 °F 94% 29.93 in 10.0 mi Calm Calm - N/A   Clear
6:55 PM 50.0 °F 46.4 °F 87% 29.92 in 10.0 mi Calm Calm - N/A   Clear
7:15 PM 50.0 °F 48.2 °F 94% 29.92 in 7.0 mi Calm Calm - N/A   Scattered Clouds
7:35 PM 50.0 °F 48.2 °F 94% 29.91 in 7.0 mi Calm Calm - N/A   Scattered Clouds
7:55 PM 50.0 °F 48.2 °F 94% 29.90 in 7.0 mi Calm Calm - N/A   Mostly Cloudy
8:15 PM 50.0 °F 46.4 °F 87% 29.90 in 5.0 mi Calm Calm - N/A   Overcast
8:35 PM 50.0 °F 46.4 °F 87% 29.89 in 7.0 mi Calm Calm - N/A   Overcast
8:55 PM 50.0 °F 48.2 °F 94% 29.89 in 7.0 mi Calm Calm - N/A   Overcast
9:15 PM 50.0 °F 48.2 °F 94% 29.89 in 7.0 mi Calm Calm - N/A   Overcast
9:35 PM 50.0 °F 46.4 °F 87% 29.86 in 4.0 mi NNE 3.5 mph - N/A Rain Rain
9:55 PM 50.0 °F 48.2 °F 94% 29.87 in 3.0 mi Calm Calm - 0.03 in Rain Rain
10:15 PM 50.0 °F 48.2 °F 94% 29.84 in 2.0 mi ENE 6.9 mph - 0.06 in Rain Rain
10:35 PM 51.8 °F 50.0 °F 94% 29.81 in 2.0 mi ENE 8.1 mph - 0.10 in Rain Light Rain
10:55 PM 51.8 °F 50.0 °F 94% 29.79 in 2.0 mi NNE 5.8 mph - 0.13 in Rain Rain
11:15 PM 51.8 °F 50.0 °F 94% 29.78 in 3.0 mi North 5.8 mph - 0.02 in Rain Light Rain
11:35 PM 51.8 °F 50.0 °F 94% 29.79 in 2.5 mi NNE 3.5 mph - 0.04 in Rain Rain
11:55 PM 51.8 °F 50.0 °F 94% 29.78 in 2.5 mi North 6.9 mph - 0.12 in Rain Heavy Rain